Regional Weather Roundup
Issued by NWS

Home | Current Version | Previous Version | Graphics & Text | Print | Product List | Glossary On
Versions: 1 2 3 4 5 6 7 8 9 10 11 12 13 14 15 16 17 18 19 20 21 22 23 24 25 26 27 28 29 30 31 32 33 34 35 36 37 38 39 40 41 42 43 44 45 46 47 48 49 50
000
ASUS43 KLMK 120502
RWRKY
KENTUCKY REGIONAL WEATHER ROUNDUP
NATIONAL WEATHER SERVICE LOUISVILLE KY
100 AM EDT SAT JUL 12 2014

NOTE "FAIR" INDICATES FEW OR NO CLOUDS BELOW 12,000 FEET
WITH NO SIGNIFICANT WEATHER AND/OR OBSTRUCTIONS TO VISIBILITY.

KYZ001>023-026-027-061>063-070>075-120600-
WESTERN AND SOUTH CENTRAL KENTUCKY

CITY           SKY/WX    TMP DP  RH WIND       PRES   REMARKS
PADUCAH        CLEAR     77  67  71 S3        30.14S
HENDERSON      CLEAR     70  64  83 CALM      30.14S
OWENSBORO      CLEAR     71  66  84 CALM      30.16S
HOPKINSVILLE   CLEAR     73  66  79 CALM      30.17S
BOWLING GREEN  PTCLDY    71  65  81 CALM      30.18R
GLASGOW        NOT AVBL
$$

KYZ024-025-028>034-038-045-046-053-120600-
NORTH CENTRAL KENTUCKY

CITY           SKY/WX    TMP DP  RH WIND       PRES   REMARKS
LOUISVILLE/SDF PTCLDY    76  60  57 CALM      30.17S
LOUISVILLE/LOU CLEAR     70  61  73 CALM      30.18S
FORT KNOX      CLEAR     65  63  91 CALM      30.17S
$$

KYZ035>037-039>044-047>052-055>060-089>105-120600-
NORTHEAST KENTUCKY

CITY           SKY/WX    TMP DP  RH WIND       PRES   REMARKS
LEXINGTON      CLEAR     69  63  81 CALM      30.20S
COVINGTON      PTCLDY    67  57  70 CALM      30.19S
FRANKFORT      CLEAR     67  63  87 CALM      30.18S
$$

KYZ054-064>069-076>088-106>120-120600-
SOUTHEAST KENTUCKY

CITY           SKY/WX    TMP DP  RH WIND       PRES   REMARKS
JACKSON        PTCLDY    75  59  57 E3        30.22S
LONDON         CLEAR     68  61  78 CALM      30.22S
SOMERSET       CLEAR     66  61  82 CALM      30.21F
MIDDLESBORO    CLOUDY    66  62  86 CALM      30.23S
MONTICELLO     CLEAR     63  62  96 CALM      30.22S
$$




USA.gov is the U.S. government's official web portal to all federal, state and local government web resources and services.